Regional Weather Roundup
Issued by NWS

Home | Current Version | Previous Version | Graphics & Text | Print | Product List | Glossary On
Versions: 1 2 3 4 5 6 7 8 9 10 11 12 13 14 15 16 17 18 19 20 21 22 23 24 25 26 27 28 29 30 31 32 33 34 35 36 37 38 39 40 41 42 43 44 45 46 47 48 49 50
000
ASUS43 KFSD 271210
RWRSD

WEATHER ROUNDUP FOR SOUTH DAKOTA
NATIONAL WEATHER SERVICE SIOUX FALLS SD
700 AM CDT FRI MAY 27 2016

NOTE: "FAIR" INDICATES FEW OR NO CLOUDS BELOW 12,000 FEET WITH NO
SIGNIFICANT WEATHER AND/OR OBSTRUCTIONS TO VISIBILITY.


SDZ001>005-009-010-012>017-271300-
NORTHWEST AND NORTH CENTRAL SOUTH DAKOTA

CITY           SKY/WX    TMP DP  RH WIND       PRES   REMARKS
BUFFALO          N/A     47  43  86 S5        29.80F
FAITH            N/A     47  40  76 NW8       29.82S
MOBRIDGE       PTCLDY    51  47  86 N5        29.78R
$$

SDZ012>016-024>037-041>051-057-063-072>074-271300-
SOUTHWEST AND SOUTH CENTRAL SOUTH DAKOTA

CITY           SKY/WX    TMP DP  RH WIND       PRES   REMARKS
RAPID CTY ARPT CLOUDY    50  43  77 NW7       29.85S
PIERRE         CLOUDY    53  48  83 NW13      29.74S
CUSTER         CLOUDY    43  40  89 CALM      29.91S
ELLSWORTH AFB  CLOUDY    50  46  84 W1        29.85R
PHILIP         CLOUDY    50  46  86 NW13      29.79S
PINE RIDGE     CLOUDY    50  44  80 E6        29.83R
WINNER         PTSUNNY   57  52  83 N7        29.77R
$$

SDZ004>011-016>023-039-040-271300-
NORTHEAST SOUTH DAKOTA

CITY           SKY/WX    TMP DP  RH WIND       PRES   REMARKS
ABERDEEN       MOCLDY    55  52  89 CALM      29.76S
WATERTOWN      CLOUDY    58  54  86 CALM      29.74F
SISSETON         N/A     56  54  93 NW3       29.74F
$$

SDZ017-020-022-023-036>040-048>070-271300-
SOUTHEAST SOUTH DAKOTA

CITY           SKY/WX    TMP DP  RH WIND       PRES   REMARKS
SIOUX FALLS    CLOUDY    61  55  81 SE5       29.73F
HURON          CLOUDY    58  57  97 MISG      29.72S
CHAMBERLAIN    CLOUDY    59  56  89 N3        29.75R
MITCHELL       CLOUDY    59  58  96 CALM      29.70F
YANKTON        CLOUDY    61  55  82 E5        29.71S
$$

ABBREVIATIONS USED IN REMARKS
   TC - TEMPERATURE IN CELSIUS
  WCI - WIND CHILL INDEX
   HX - HEAT INDEX
  VSB - VISIBILITY





USA.gov is the U.S. government's official web portal to all federal, state and local government web resources and services.